Volver al catálogo

CZ-6A DEB

ActivoPO
NORAD 54471·DEBRIS·🇨🇳 China

Lanzado Nov 11, 2022 desde Taiyuan Satellite Launch Center

Loading…

Próximos Pases (próximas 24 horas)

TLE

ActualizadoSource: Space-Track

Época: Sep 13, 2026, 03:35 UTC

1 54471U 22151GX  26256.14949502  .00006828  00000-0  10282-2 0  9996
2 54471  98.6065 326.2996 0069153   7.8058 352.4207 14.73146734203150

Sigue CZ-6A DEB en tiempo real con AllMySat

Download on the App Store